Regional Weather Roundup
Issued by NWS Charleston, SC

Current Version | Previous Version | Text Only | Print | Product List | Glossary Off
Versions: 1 2 3 4 5 6 7 8 9 10 11 12 13 14 15 16 17 18 19 20 21 22 23 24 25 26 27 28 29 30 31 32 33 34 35 36 37 38 39 40 41 42 43 44 45 46 47 48 49 50
000 ASUS42 KCHS 230210 RWRCHS REGIONAL WEATHER ROUNDUP NATIONAL WEATHER SERVICE CHARLESTON SC 1000 PM EDT MON SEP 22 2014 NOTE: "FAIR" INDICATES FEW OR NO CLOUDS BELOW 12,000 FEET WITH NO SIGNIFICANT WEATHER AND/OR OBSTRUCTIONS TO VISIBILITY. NOT ALL STATIONS ARE QUALITY CONTROLLED BY THE NATIONAL WEATHER SERVICE. USE DATA WITH CAUTION...ESPECIALLY DEWPOINT OBSERVATIONS. SCZ027-030-031-034>040-042>050-230300- ...SOUTH CAROLINA... CITY SKY/WX TMP DP RH WIND PRES REMARKS N CHARLESTON CLOUDY 70 67 90 N5 30.08R WATERFRONT PRK NOT AVBL FORT JOHNSON NOT AVBL MOUNT PLEASANT MOCLDY 70 68 94 CALM 30.07R FOG JOHNS ISLAND CLOUDY 72 72 100 CALM 30.08R PINOPOLIS NOT AVBL MONCKS CORNER LGT RAIN 68 68 100 CALM 30.10R SUMMERVILLE RAIN 68 68 100 N6 30.10S BEAUFORT MCAS CLOUDY 70 67 90 W8 30.10R BEAUFORT ARPT CLOUDY 70 70 100 NW6 30.09R HILTON HEAD IS MOCLDY 72 66 83 N8 30.09S GEORGETOWN NOT AVBL WALTERBORO LGT RAIN 68 N/A N/A NW6 30.11R ORANGEBURG LGT RAIN 65 61 87 NE3 30.11R BARNWELL LGT RAIN 64 64 100 CALM 30.12R AIKEN MOCLDY 64 64 100 E3 30.14R MANNING CLOUDY 68 N/A N/A CALM 30.11R KINGSTREE NOT AVBL COLUMBIA CLOUDY 68 62 81 E3 30.10R SUMTER LGT RAIN 64 63 94 NE7 30.10R FLORENCE CLOUDY 67 63 87 N7 30.10R MYRTLE BEACH CLOUDY 68 64 88 N8 30.09S N MYRTLE BEACH CLOUDY 68 65 90 N5 30.09R $$ GAZ063-065-086>088-099>101-113>116-118-119-134-136>141-150-230300- ...GEORGIA... CITY SKY/WX TMP DP RH WIND PRES REMARKS SAVANNAH ARPT CLOUDY 70 66 87 N8 30.10R HUNTER AAF CLOUDY 70 68 93 N8 30.07R FORT STEWART MOCLDY 70 65 84 NE8 30.07R STATESBORO NOT AVBL SYLVANIA LGT RAIN 70 69 98 CALM 30.11S CLAXTON CLOUDY 72 72 100 E5 30.09S THOMSON PTCLDY 64 64 100 CALM 30.16R AUGUSTA-BUSH CLOUDY 65 63 93 CALM 30.11R AUGUSTA-DANIEL CLOUDY 67 62 84 E5 30.12R SWAINSBORO CLOUDY 70 70 100 E8 30.08S VIDALIA HVY RAIN 68 66 94 E9 30.08R ALMA MOCLDY 72 65 78 E8 30.05S WAYCROSS CLOUDY 77 69 75 E7 30.05R JESUP CLOUDY 75 66 73 NE7 30.07R BRUNSWICK MOCLDY 75 64 69 N7 30.06R SAINT SIMONS CLOUDY 76 67 73 NE15G22 30.04R $$ SCZ027-028-034-036>038-045-046-048>050-GAZ119-141-230300- ...LAKE AND SUPPLEMENTAL COASTAL OBSERVATIONS... STATION/POSITION TIME TEMP WIND PRES WAVE SWELL AIR SEA DIR/SP/G HT/PER HT/PER/DIR (UTC) (F) (DEG/KT/KT) (MB) (FT/S) (FT/S/D) UPR LAKE MARION NOT AVBL WINYAH BAY 0100 68 310/ 3 1018.0R LAKE MURRAY 0100 69 50/ 3/ 7 1018.6R ACE BASIN NERRS 0100 67 30/ 1 1017.0S FORT PULASKI 0200 73 360/ 6/ 8 1018.6F SAPELO ISLAND 0100 75 30/ 8 1018.0R $$ ANZ835-935-AMZ111-154-330-350-352-354-374-450-454-472-230300- ...C-MAN AND BUOY OBSERVATIONS... STATION/POSITION TIME TEMP WIND PRES WAVE SWELL AIR SEA DIR/SP/G HT/PER HT/PER/DIR (UTC) (F) (DEG/KT/KT) (MB) (FT/S) (FT/S/D) FOLLY BEACH CMAN 0100 73 40/ 13/ 15 1018.3R BUOY 41004 0200 77 82 20/ 16/ 17 1017.4R 3/ 7 2/ 7 BUOY 41008 0200 78 83 40/ 17/ 21 1017.0R 2/ 3 2/100/ 8 5E ST. MARYS GA 0200 83 N/A 3/ 3 FRYING PAN BUOY NOT AVBL BUOY 41025 0200 74 360/ 14/ 16 1018.9R 4/ 8 2/130/ 8 CAPE LOOKOUT NC 0100 74 20/ 8/ 10 1018.6R BUOY 41002 0053 80 81 CALM / 2 1018.8R 3/ 7 3/100/ 7 BUOY 41010 0200 81 84 170/ 4/ 6 1017.2R 3/ 7 3/ 70/ 7 BUOY 41012 NOT AVBL ST AUGUSTINE FL 0200 75 180/ 12/ 13 1017.5R CAPERS NEARSHORE 0100 73 50/ 10/ 12 N/A FRIPP NEARSHORE NOT AVBL $$

USA.gov is the U.S. government's official web portal to all federal, state and local government web resources and services.